Location: Eaton Estates
(41.3089°N, 82.0057°W)
Time: 15:44:20
(UTC+00:00)

IRS-1D - Pass Details

Date: 17 June 2021
Orbit: 739 x 817 km, 98.6° (Epoch: 02 August)

Event Time Altitude Azimuth Distance (km) Brightness Sun altitude
Rises 08:41:45 0° 4° (N) 3,287 7.6 -11.4°
Reaches altitude 10° 08:44:17 10° 355° (N) 2,342 6.6 -11.1°
Maximum altitude 08:48:50 33° 293° (WNW) 1,273 4.5 -10.5°
Enters shadow 08:52:48 13° 233° (SW) 2,106 5.1 -9.9°
